Flag for U.S.A. Weather past 2 weeks in Unalaska, Alaska, U.S.A.

Now
34 °F

Mostly cloudy.


Feels Like: 31 °F
Forecast: 37 / 42 °F
Wind: 3 mph from Southeast

Location: Dutch Harbor


UV Index: 0 (Low)

Visibility: 10 mi


Pressure: 29.30 "Hg

Humidity: 85%

Dew point: 30 °F

Location of UnalaskaLocation

Historic Weather in Unalaska

°F

Unalaska temperature yesterday

Maximum temperature yesterday: 41 °F (at 12:56 PM)
Minimum temperature yesterday: 36 °F (at 7:57 AM)
Average temperature yesterday: 37 °F

Past Weeks' High & Low Weather Summary

 TemperatureHumidityPressure
High44 °F (Apr 12, 4:56 PM)93% (Apr 5, 6:58 AM)29.93 "Hg (Apr 5, 6:58 AM)
Low29 °F (Apr 7, 8:56 AM)55% (Apr 12, 4:56 PM)29.10 "Hg (Apr 3, 9:47 AM)
Average38 °F77%29.51 "Hg
* Reported Apr 3 3:56 AM — Apr 18 3:56 AM, Unalaska, Weather by CustomWeather, © 2014

Note: Actual official high and low records may vary slightly from our data, if they occured in-between our weather recording intervals... More about our weather records

Advertising

Historic Weather Conditions — Data for Previous 24 hours

 ConditionsComfort  
Time TempWeatherWind HumidityBarometerVisibility
3:56 AM
Apr 18
34 °FPassing clouds.No wind88%29.31 "Hg10 mi
2:56 AM35 °FMostly cloudy.No wind88%29.31 "Hg10 mi
1:56 AM34 °FLight rain. Mostly cloudy.No wind88%29.31 "Hg10 mi
12:56 AM36 °FMostly cloudy.No wind82%29.30 "Hg10 mi
11:56 PM
Apr 17
37 °FMostly cloudy.5 mph86%29.30 "Hg10 mi
10:56 PM37 °FScattered clouds.5 mph82%29.30 "Hg10 mi
9:56 PM37 °FBroken clouds.5 mph82%29.29 "Hg10 mi
8:56 PM37 °FMostly cloudy.7 mph82%29.29 "Hg10 mi
7:56 PM37 °FPartly sunny.6 mph86%29.29 "Hg10 mi
6:56 PM37 °FMostly cloudy.8 mph86%29.29 "Hg10 mi
5:56 PM37 °FLight rain. Partly sunny.8 mph86%29.30 "Hg10 mi
4:56 PM37 °FPartly sunny.13 mph86%29.31 "Hg10 mi
3:56 PM40 °FPartly sunny.6 mph70%29.32 "Hg10 mi
2:56 PM41 °FPartly sunny.3 mph67%29.34 "Hg10 mi
1:56 PM40 °FPartly sunny.7 mph68%29.35 "Hg10 mi
12:56 PM41 °FBroken clouds.5 mph65%29.36 "Hg10 mi
11:56 AM38 °FBroken clouds.No wind73%29.36 "Hg10 mi
10:56 AM38 °FMore clouds than sun.No wind73%29.37 "Hg10 mi
9:56 AM36 °FBroken clouds.No wind75%29.39 "Hg10 mi
8:58 AM36 °FPartly cloudy.No wind75%29.37 "Hg10 mi
7:57 AM36 °FPassing clouds.No wind75%29.38 "Hg10 mi
6:56 AM36 °FPassing clouds.5 mph75%29.40 "Hg10 mi
5:56 AM36 °FPassing clouds.No wind75%29.41 "Hg10 mi
Weather by CustomWeather, © 2014

See weather overview